Вернуться в каталог

THOR ABLESTAR R/B

АктивенLEO
NORAD 118·ROCKET BODY·🇺🇸 United States

Запущен Jun 29, 1961 с Cape Canaveral Space Force Station

Loading…

Ближайшие Пролёты (ближайшие 24 часа)

TLE

СвежийSource: Space-Track

Эпоха: Sep 5, 2026, 08:28 UTC

1 00118U 61015C   26248.35280412  .00000004  00000-0  52000-4 0  9995
2 00118  66.7621 220.5644 0086649 219.0536 140.4273 14.02757559327381

Отслеживайте THOR ABLESTAR R/B в реальном времени с AllMySat

Download on the App Store